DECAYED

DMSP 5D-2 F13 DEB, 40435 (Decayed)

Orbit data source: Space-Track

DMSP 5D-2 F13 DEB, 40435 was space debris in SSO originally from a launch on Fri, 24 Mar 1995 UTC launched from the Air Force Western Test Range (AFWTR). Debris objects in space refer to the collection of defunct objects orbiting the Earth. Examples of debris include non-operational satellites, rocket bodies, and fragments generated from explosions, collisions, or faulty payload assembly.

Not visible in the next 10 days
Identifier
40435, 1995-015AM
Orbit
Decayed
Last TLE update
11 months ago
Origin
Manufacturer
Unknown
Mission
Decayed spacecraft
Bus & Motor
Unknown
Mass
Unknown
Launch date (UTC)
1995-03-24 (30 years ago)
Launch vehicle
Unknown
Launch site
Air Force Western Test Range (AFWTR)
Object type
Payload
Rocket body
Debris
Shape & HBR
Unknown
Radar Cross Section
Small (<0.1 m²)

Expand to show TLE details & history

TLE from 11 months ago
0 DMSP 5D-2 F13 DEB
1 40435U 95015AM  24226.22020656  .07104449  00000-0  15799+0 0  9994
2 40435  98.8381 120.9306 0019147  85.1354 275.2072 15.38851614488584
Epoch: 2024-08-13T05:17Z
TLE epoch observation values (Epoch: 2024-08-13T05:17:05.846Z)
Latitude
-0.00009°
Longitude
79.51592°
Altitude
451.413 km
Speed
7.642 km/s
True Right ascension
08h 03m 43s
True Declination
0° 00' 00"
Sunlit
Object was in daylight at epoch
Visualization orbit readout
Visualization observer readout
Orbital elements
Apogee altitude
459.579 km
Perigee altitude
433.445 km
Semi-major axis
6,824.649 km
Eccentricity
0.00191
Inclination
98.8381°
RAAN
120.9306°
Arg. of periapsis
85.1354°
True anomaly
Unknown
Mean anomaly
275.2072°
Eccentric anomaly
Unknown
Mean motion
3.84966 °/min
Orbital period
93.51 mins
BSTAR
0.15799
Loading maneuver chart data...
Loading SW <> Apogee altitude chart data...

DMSP 5D-2 F13 DEB Visibility

Observer location: undefined°, undefined°

This satellite is decayed
Span
Click to sort rows by Start time (UTC) header in descending order
Start Az.
Max El. time (UTC)
Max El. Az.
Max El.
End time (UTC)
End Az.
|